START_TIME,STEP,MOV.,M15,t_acc.,M20,t_acc.
1979-07-11 12:00:44.260 ,3,0,0.,24.0,0.,24.0
1979-07-11 12:01:08.260 ,3,0,0.,24.0,0.,24.0
1979-07-11 12:01:32.260 ,3,0,0.,24.0,0.,24.0
1979-07-11 12:01:56.260 ,2,1,0.,24.0,0.,24.0
1979-07-11 12:02:20.260 ,2,0,0.,24.0,0.,24.0
1979-07-11 12:02:44.260 ,2,0,0.,24.0,0.,24.0
1979-07-11 12:03:08.260 ,2,0,0.,24.0,0.,24.0
1979-07-11 12:03:32.260 ,2,0,0.,24.0,0.,24.0
1979-07-11 12:03:56.260 ,2,0,0.,24.0,0.,24.0
1979-07-11 12:04:20.260 ,1,1,0.,24.0,0.,24.0
1979-07-11 12:04:44.260 ,1,0,0.,24.0,0.,24.0
1979-07-11 12:05:08.260 ,1,0,0.,24.0,0.,24.0
1979-07-11 12:05:32.260 ,1,0,0.,24.0,0.,24.0
1979-07-11 12:05:56.260 ,1,0,0.,24.0,0.,24.0
1979-07-11 12:06:20.260 ,1,0,0.,24.0,0.,24.0
1979-07-11 12:06:44.260 ,0,1,0.,24.0,0.,24.0
1979-07-11 12:07:08.260 ,0,0,0.,24.0,0.,24.0
1979-07-11 12:07:32.260 ,0,0,0.,24.0,0.,24.0
1979-07-11 12:07:56.260 ,0,0,0.,24.0,0.,24.0
1979-07-11 12:08:20.260 ,0,0,0.,24.0,0.,24.0
1979-07-11 12:08:44.260 ,0,0,0.,24.0,0.,24.0
1979-07-11 12:09:08.260 ,0,1,0.,24.0,0.,24.0
1979-07-11 12:09:32.260 ,0,0,0.,24.0,0.,24.0
1979-07-11 12:09:56.260 ,0,0,0.,24.0,0.,24.0
1979-07-11 12:10:20.260 ,0,0,0.,24.0,0.,24.0
1979-07-11 12:10:44.260 ,0,0,0.,24.0,0.,24.0
1979-07-11 12:11:08.260 ,0,0,0.,24.0,0.,24.0
1979-07-11 12:11:32.260 ,1,1,0.,24.0,0.,24.0
1979-07-11 12:11:56.260 ,1,0,0.,24.0,0.,24.0
1979-07-11 12:12:20.260 ,1,0,0.,24.0,0.,24.0
1979-07-11 12:12:44.260 ,1,0,0.,24.0,0.,24.0
1979-07-11 12:13:08.260 ,1,0,0.,24.0,0.,24.0
1979-07-11 12:13:32.260 ,1,0,0.,24.0,0.,24.0
1979-07-11 12:13:56.260 ,2,1,0.,24.0,0.,24.0
1979-07-11 12:14:20.260 ,2,0,0.,24.0,0.,24.0
1979-07-11 12:14:44.260 ,2,0,0.,24.0,0.,24.0
1979-07-11 12:15:08.260 ,2,0,0.,24.0,0.,24.0
1979-07-11 12:15:32.260 ,2,0,0.,24.0,0.,24.0
1979-07-11 12:15:56.260 ,2,0,0.,24.0,0.,24.0
1979-07-11 12:16:20.260 ,3,1,0.,24.0,0.,24.0
1979-07-11 12:16:44.260 ,3,0,0.,24.0,0.,24.0
1979-07-11 12:17:08.260 ,3,0,0.,24.0,0.,24.0
1979-07-11 12:17:32.260 ,3,0,0.,24.0,0.,24.0
1979-07-11 12:17:56.260 ,3,0,0.,24.0,0.,24.0
1979-07-11 12:18:20.260 ,3,0,0.,24.0,0.,24.0
1979-07-11 12:18:44.260 ,4,1,0.,24.0,0.,24.0
1979-07-11 12:19:08.260 ,4,0,0.,24.0,0.,24.0
1979-07-11 12:19:32.260 ,4,0,0.,24.0,0.,24.0
1979-07-11 12:19:56.260 ,4,0,0.,24.0,0.,24.0
1979-07-11 12:20:20.260 ,4,0,0.,24.0,0.,24.0
1979-07-11 12:20:44.260 ,4,0,0.,24.0,0.,24.0
1979-07-11 12:21:08.260 ,5,1,0.,24.0,0.,24.0
1979-07-11 12:21:32.260 ,5,0,0.,24.0,0.,24.0
1979-07-11 12:21:56.260 ,5,0,0.,24.0,0.,24.0
1979-07-11 12:22:20.260 ,5,0,0.,24.0,0.,24.0
1979-07-11 12:22:44.260 ,5,0,0.,24.0,0.,24.0
1979-07-11 12:23:08.260 ,5,0,0.,24.0,0.,24.0
1979-07-11 12:23:32.260 ,6,1,0.,24.0,0.,24.0
1979-07-11 12:23:56.260 ,6,0,0.,24.0,0.,24.0
1979-07-11 12:24:20.260 ,6,0,0.,24.0,0.,24.0
1979-07-11 12:24:44.260 ,6,0,0.,24.0,0.,24.0
1979-07-11 12:25:08.260 ,6,0,0.,24.0,0.,24.0
1979-07-11 12:25:32.260 ,6,0,0.,24.0,0.,24.0
1979-07-11 12:25:56.260 ,7,1,0.,24.0,0.,24.0
1979-07-11 12:26:20.260 ,0,0,,0,,0
1979-07-11 12:26:44.260 ,0,0,0.,24.0,0.,24.0
1979-07-11 12:27:08.260 ,0,0,0.,24.0,0.,24.0
1979-07-11 12:27:32.260 ,0,0,0.,24.0,0.,24.0
1979-07-11 12:27:56.260 ,0,0,0.,24.0,0.,24.0
1979-07-11 12:28:20.260 ,7,1,0.,24.0,0.,24.0
1979-07-11 12:28:44.260 ,7,0,0.,24.0,0.,24.0
1979-07-11 12:29:08.260 ,7,0,0.,24.0,0.,24.0
1979-07-11 12:29:32.260 ,7,0,0.,24.0,0.,24.0
1979-07-11 12:29:56.260 ,7,0,0.,24.0,0.,24.0
1979-07-11 12:30:20.260 ,7,0,0.,24.0,0.,24.0
1979-07-11 12:30:44.260 ,6,1,0.,24.0,0.,24.0
1979-07-11 12:31:08.260 ,6,0,0.,24.0,0.,24.0
1979-07-11 12:31:32.260 ,6,0,0.,24.0,0.,24.0
1979-07-11 12:31:56.260 ,6,0,0.,24.0,0.,24.0
1979-07-11 12:32:20.260 ,6,0,0.,24.0,0.,24.0
1979-07-11 12:32:44.260 ,6,0,0.,24.0,0.,24.0
1979-07-11 12:33:08.260 ,5,1,0.,24.0,0.,24.0
1979-07-11 12:33:32.260 ,5,0,0.,24.0,0.,24.0
1979-07-11 12:33:56.260 ,5,0,0.,24.0,0.,24.0
1979-07-11 12:34:20.260 ,5,0,0.,24.0,0.,24.0
1979-07-11 12:34:44.260 ,5,0,0.,24.0,0.,24.0
1979-07-11 12:35:08.260 ,5,0,0.,24.0,0.,24.0
1979-07-11 12:35:32.260 ,4,1,0.,24.0,0.,24.0
1979-07-11 12:35:56.260 ,4,0,0.,24.0,0.,24.0
1979-07-11 12:36:20.260 ,4,0,0.,24.0,0.,24.0
1979-07-11 12:36:44.260 ,4,0,0.,24.0,0.,24.0
1979-07-11 12:37:08.260 ,4,0,0.,24.0,0.,24.0
1979-07-11 12:37:32.260 ,4,0,0.,24.0,0.,24.0
1979-07-11 12:37:56.260 ,3,1,0.,24.0,0.,24.0
1979-07-11 12:38:20.260 ,3,0,0.,24.0,0.,24.0
1979-07-11 12:38:44.260 ,3,0,0.,24.0,0.,24.0
1979-07-11 12:39:08.260 ,3,0,0.,24.0,0.,24.0
1979-07-11 12:39:32.260 ,3,0,0.,24.0,0.,24.0
1979-07-11 12:39:56.260 ,3,0,0.,24.0,0.,24.0
1979-07-11 12:40:20.260 ,2,1,0.,24.0,0.,24.0
1979-07-11 12:40:44.260 ,2,0,0.,24.0,0.,24.0
1979-07-11 12:41:08.260 ,2,0,0.,24.0,0.,24.0
1979-07-11 12:41:32.260 ,2,0,0.,24.0,0.,24.0
1979-07-11 12:41:56.260 ,2,0,0.,24.0,0.,24.0
1979-07-11 12:42:20.260 ,2,0,0.,24.0,0.,24.0
1979-07-11 12:42:44.260 ,1,1,0.,24.0,0.,24.0
1979-07-11 12:43:08.260 ,1,0,0.,24.0,0.,24.0
1979-07-11 12:43:32.260 ,1,0,0.,24.0,0.,24.0
1979-07-11 12:43:56.260 ,1,0,0.,24.0,0.,24.0
1979-07-11 12:44:20.260 ,1,0,0.,24.0,0.,24.0
1979-07-11 12:44:44.260 ,0,0,0.,24.0,0.,24.0
1979-07-11 13:00:07.660 ,0,0,0.,24.0,0.,24.0
1979-07-11 13:01:17.260 ,0,0,0.,24.0,0.,24.0
1979-07-11 13:01:32.260 ,0,0,0.,24.0,0.,24.0
1979-07-11 13:01:56.260 ,6,1,0.,24.0,0.,24.0
1979-07-11 13:02:20.260 ,6,0,0.,24.0,0.,24.0
1979-07-11 13:02:44.260 ,6,0,0.,24.0,0.,24.0
1979-07-11 13:03:08.260 ,6,0,0.,24.0,0.,24.0
1979-07-11 13:03:32.260 ,6,0,0.,24.0,0.,24.0
1979-07-11 13:03:56.260 ,6,0,0.,24.0,0.,24.0
1979-07-11 13:04:20.260 ,7,1,0.,24.0,0.,24.0
1979-07-11 13:04:44.260 ,7,0,0.,24.0,0.,24.0
1979-07-11 13:05:08.260 ,7,0,0.,24.0,0.,24.0
1979-07-11 13:05:32.260 ,7,0,0.,24.0,0.,24.0
1979-07-11 13:05:56.260 ,7,0,0.,24.0,0.,24.0
1979-07-11 13:06:20.260 ,7,0,0.,24.0,0.,24.0
1979-07-11 13:06:44.260 ,7,1,0.,24.0,0.,24.0
1979-07-11 13:07:08.260 ,7,0,0.,24.0,0.,24.0
1979-07-11 13:07:32.260 ,0,0,0.,24.0,0.,24.0
1979-07-11 13:07:56.260 ,0,0,0.,24.0,0.,24.0
1979-07-11 13:08:20.260 ,0,0,0.,24.0,0.,24.0
1979-07-11 13:08:44.260 ,0,0,0.,24.0,0.,24.0
1979-07-11 13:09:08.260 ,6,1,0.,24.0,0.,24.0
1979-07-11 13:09:32.260 ,6,0,0.,24.0,0.,24.0
1979-07-11 13:09:56.260 ,6,0,0.,24.0,0.,24.0
1979-07-11 13:10:20.260 ,6,0,0.,24.0,0.,24.0
1979-07-11 13:10:44.260 ,6,0,0.,24.0,0.,24.0
1979-07-11 13:11:08.260 ,6,0,0.,24.0,0.,24.0
1979-07-11 13:11:32.260 ,5,1,0.,24.0,0.,24.0
1979-07-11 13:11:56.260 ,5,0,0.,24.0,0.,24.0
1979-07-11 13:12:20.260 ,5,0,0.,24.0,0.,24.0
1979-07-11 13:12:44.260 ,5,0,0.,24.0,0.,24.0
1979-07-11 13:13:08.260 ,5,0,0.,24.0,0.,24.0
1979-07-11 13:13:32.260 ,5,0,0.,24.0,0.,24.0
1979-07-11 13:13:56.260 ,4,1,0.,24.0,0.,24.0
1979-07-11 13:14:20.260 ,4,0,0.,24.0,0.,24.0
1979-07-11 13:14:44.260 ,4,0,0.,24.0,0.,24.0
1979-07-11 13:15:08.260 ,4,0,0.,24.0,0.,24.0
1979-07-11 13:15:32.260 ,4,0,0.,24.0,0.,24.0
1979-07-11 13:15:56.260 ,4,0,0.,24.0,0.,24.0
1979-07-11 13:16:20.260 ,3,1,0.,24.0,0.,24.0
1979-07-11 13:16:44.260 ,0,0,0.,24.0,0.,24.0
1979-07-11 13:18:14.860 ,0,0,0.,24.0,0.,24.0
1979-07-11 13:18:20.260 ,0,0,0.,24.0,0.,24.0
1979-07-11 13:18:44.260 ,0,0,0.,24.0,0.,24.0
1979-07-11 13:19:08.260 ,0,0,0.,24.0,0.,24.0
1979-07-11 13:19:32.260 ,0,0,0.,24.0,0.,24.0
1979-07-11 13:19:56.260 ,0,0,0.,24.0,0.,24.0
1979-07-11 13:20:20.260 ,0,0,0.,24.0,0.,24.0
1979-07-11 13:20:44.260 ,0,0,0.,24.0,0.,24.0
1979-07-11 13:21:08.260 ,0,0,0.,24.0,0.,24.0
1979-07-11 13:21:32.260 ,0,0,0.,24.0,0.,24.0
1979-07-11 13:21:56.260 ,0,0,0.,24.0,0.,24.0
1979-07-11 13:22:20.260 ,0,0,0.,24.0,0.,24.0
1979-07-11 13:22:44.260 ,0,0,,0,,0
1979-07-11 13:23:08.260 ,0,0,0.,24.0,0.,24.0
1979-07-11 13:24:20.260 ,0,0,0.,24.0,0.,24.0
1979-07-11 13:24:44.260 ,0,0,0.,24.0,0.,24.0
1979-07-11 13:25:08.260 ,0,0,0.,24.0,0.,24.0
1979-07-11 13:25:32.260 ,0,0,0.,24.0,0.,24.0
1979-07-11 13:25:56.260 ,0,1,0.,24.0,0.,24.0
1979-07-11 13:26:20.260 ,0,0,0.,24.0,0.,24.0
1979-07-11 13:26:44.260 ,0,0,0.,24.0,0.,24.0
1979-07-11 13:27:08.260 ,0,0,0.,24.0,0.,24.0
1979-07-11 13:28:20.260 ,1,1,0.,24.0,0.,24.0
1979-07-11 13:28:44.260 ,1,0,0.,24.0,0.,24.0
1979-07-11 13:29:08.260 ,1,0,0.,24.0,0.,24.0
1979-07-11 13:29:32.260 ,1,0,0.,24.0,0.,24.0
1979-07-11 13:29:56.260 ,1,0,0.,24.0,0.,24.0
1979-07-11 13:30:20.260 ,1,0,0.,24.0,0.,24.0
1979-07-11 13:30:44.260 ,2,1,0.,24.0,0.,24.0
1979-07-11 13:31:08.260 ,2,0,0.,24.0,0.,24.0
1979-07-11 13:31:32.260 ,2,0,0.,24.0,0.,24.0
1979-07-11 13:31:56.260 ,2,0,0.,24.0,0.,24.0
1979-07-11 13:32:20.260 ,2,0,0.,24.0,0.,24.0
1979-07-11 13:32:44.260 ,2,0,0.,24.0,0.,24.0
1979-07-11 13:33:08.260 ,3,1,0.,24.0,0.,24.0
1979-07-11 13:33:32.260 ,3,0,0.,24.0,0.,24.0
1979-07-11 13:34:44.260 ,3,0,0.,24.0,0.,24.0
1979-07-11 13:35:08.260 ,3,0,0.,24.0,0.,24.0
1979-07-11 13:35:32.260 ,4,1,0.,24.0,0.,24.0
1979-07-11 13:35:56.260 ,4,0,0.,24.0,0.,24.0
1979-07-11 13:36:20.260 ,4,0,0.,24.0,0.,24.0
1979-07-11 13:36:44.260 ,4,0,0.,24.0,0.,24.0
1979-07-11 13:37:08.260 ,4,0,0.,24.0,0.,24.0
1979-07-11 13:37:32.260 ,4,0,0.,24.0,0.,24.0
1979-07-11 13:38:44.260 ,4,0,0.,24.0,0.,24.0
1979-07-11 13:39:08.260 ,0,0,0.,24.0,0.,24.0
1979-07-11 13:39:32.260 ,0,0,0.,24.0,0.,24.0
1979-07-11 13:39:56.260 ,0,0,0.,24.0,0.,24.0
1979-07-11 13:40:20.260 ,6,1,0.,24.0,0.,24.0
1979-07-11 13:40:44.260 ,6,0,0.,24.0,0.,24.0
1979-07-11 13:41:08.260 ,6,0,0.,24.0,0.,24.0
1979-07-11 13:41:32.260 ,6,0,0.,24.0,0.,24.0
1979-07-11 13:41:56.260 ,6,0,0.,24.0,0.,24.0
1979-07-11 13:42:20.260 ,6,0,0.,24.0,0.,24.0
1979-07-11 13:42:44.260 ,7,1,0.,24.0,0.,24.0
1979-07-11 13:43:08.260 ,7,0,0.,24.0,0.,24.0
1979-07-11 13:43:32.260 ,7,0,0.,24.0,0.,24.0
1979-07-11 13:43:56.260 ,7,0,0.,24.0,0.,24.0
1979-07-11 13:44:20.260 ,7,0,0.,24.0,0.,24.0
1979-07-11 13:44:44.260 ,7,0,0.,24.0,0.,24.0
1979-07-11 13:45:08.260 ,7,1,0.,24.0,0.,24.0
1979-07-11 13:45:32.260 ,7,0,0.,24.0,0.,24.0
1979-07-11 13:45:56.260 ,7,0,0.,24.0,0.,24.0
1979-07-11 13:46:20.260 ,7,0,0.,24.0,0.,24.0
1979-07-11 13:46:44.260 ,7,1,0.,24.0,0.,24.0
1979-07-11 13:47:08.260 ,7,0,0.,24.0,0.,24.0
1979-07-11 13:47:32.260 ,6,1,0.,24.0,0.,24.0
1979-07-11 13:47:56.260 ,6,0,0.,24.0,0.,24.0
1979-07-11 13:48:20.260 ,5,1,0.,24.0,0.,24.0
1979-07-11 13:48:44.260 ,5,0,0.,24.0,0.,24.0
1979-07-11 13:49:08.260 ,0,0,0.,24.0,0.,24.0
1979-07-11 13:49:32.260 ,0,0,0.,24.0,0.,24.0
1979-07-11 13:49:56.260 ,0,0,0.,24.0,0.,24.0
1979-07-11 13:50:20.260 ,7,0,0.,24.0,0.,24.0
1979-07-11 13:50:44.260 ,7,0,0.,24.0,0.,24.0
1979-07-11 13:51:08.260 ,7,0,0.,24.0,0.,24.0
1979-07-11 13:51:32.260 ,7,0,0.,24.0,0.,24.0
1979-07-11 13:51:56.260 ,7,0,0.,24.0,0.,24.0
1979-07-11 13:52:20.260 ,7,0,0.,24.0,0.,24.0
1979-07-11 13:52:44.260 ,7,0,0.,24.0,0.,24.0
1979-07-11 13:53:08.260 ,7,0,0.,24.0,0.,24.0
1979-07-11 13:53:32.260 ,7,0,0.,24.0,0.,24.0
1979-07-11 13:53:56.260 ,7,0,0.,24.0,0.,24.0
1979-07-11 13:54:20.260 ,7,0,0.,24.0,0.,24.0
1979-07-11 13:54:44.260 ,7,0,0.,24.0,0.,24.0
1979-07-11 13:55:08.260 ,7,0,0.,24.0,0.,24.0
1979-07-11 13:55:32.260 ,3,1,0.,24.0,0.,24.0
1979-07-11 13:55:56.260 ,0,1,0.,24.0,0.,24.0
1979-07-11 13:56:20.260 ,4,1,0.,24.0,0.,24.0
1979-07-11 13:56:44.260 ,7,1,0.,24.0,0.,24.0
1979-07-11 13:57:08.260 ,3,1,0.,24.0,0.,24.0
1979-07-11 13:57:32.260 ,0,1,0.,24.0,0.,24.0
1979-07-11 13:57:56.260 ,4,1,0.,24.0,0.,24.0
1979-07-11 13:58:20.260 ,7,1,0.,24.0,0.,24.0
1979-07-11 13:58:44.260 ,3,1,0.,24.0,0.,24.0
1979-07-11 13:59:08.260 ,0,1,0.,24.0,0.,24.0
1979-07-11 13:59:32.260 ,4,1,0.,24.0,0.,24.0
1979-07-11 13:59:56.260 ,7,1,0.,24.0,0.,24.0
1979-07-11 14:00:20.260 ,3,1,0.,24.0,0.,24.0
1979-07-11 14:00:44.260 ,0,1,0.,24.0,0.,24.0
1979-07-11 14:01:08.260 ,4,1,0.,24.0,0.,24.0
1979-07-11 14:01:32.260 ,7,1,0.,24.0,0.,24.0
1979-07-11 14:01:56.260 ,3,1,0.,24.0,0.,24.0
1979-07-11 14:02:20.260 ,0,1,0.,24.0,0.,24.0
1979-07-11 14:02:44.260 ,4,1,0.,24.0,0.,24.0
1979-07-11 14:03:08.260 ,7,1,0.,24.0,0.,24.0
1979-07-11 14:03:32.260 ,3,1,0.,24.0,0.,24.0
1979-07-11 14:03:56.260 ,0,1,0.,24.0,0.,24.0
1979-07-11 14:04:20.260 ,4,1,0.,24.0,0.,24.0
1979-07-11 14:04:44.260 ,7,1,0.,24.0,0.,24.0
1979-07-11 14:05:08.260 ,3,1,0.,24.0,0.,24.0
1979-07-11 14:05:32.260 ,0,1,0.,24.0,0.,24.0
1979-07-11 14:05:56.260 ,0,0,0.,24.0,0.,24.0
1979-07-11 14:06:20.260 ,0,0,0.,24.0,0.,24.0
1979-07-11 14:06:44.260 ,5,1,0.,24.0,0.,24.0
1979-07-11 14:07:08.260 ,5,0,0.,24.0,0.,24.0
1979-07-11 14:07:32.260 ,4,1,0.,24.0,0.,24.0
1979-07-11 14:07:56.260 ,4,0,0.,24.0,0.,24.0
1979-07-11 14:08:20.260 ,3,1,0.,24.0,0.,24.0
1979-07-11 14:08:44.260 ,3,0,0.,24.0,0.,24.0
1979-07-11 14:09:08.260 ,2,1,0.,24.0,0.,24.0
1979-07-11 14:09:32.260 ,2,0,0.,24.0,0.,24.0
1979-07-11 14:09:56.260 ,1,1,0.,24.0,0.,24.0
1979-07-11 14:10:20.260 ,1,0,0.,24.0,0.,24.0
1979-07-11 14:10:44.260 ,0,1,0.,24.0,0.,24.0
1979-07-11 14:11:08.260 ,0,0,0.,24.0,0.,24.0
1979-07-11 14:11:32.260 ,0,1,0.,24.0,0.,24.0
1979-07-11 14:11:56.260 ,0,0,0.,24.0,0.,24.0
1979-07-11 14:12:20.260 ,1,1,0.,24.0,0.,24.0
1979-07-11 14:12:44.260 ,1,0,0.,24.0,0.,24.0
1979-07-11 14:13:08.260 ,2,1,0.,24.0,0.,24.0
1979-07-11 14:13:32.260 ,2,0,0.,24.0,0.,24.0
1979-07-11 14:13:56.260 ,3,1,0.,24.0,0.,24.0
1979-07-11 14:14:20.260 ,3,0,0.,24.0,0.,24.0
1979-07-11 14:14:44.260 ,4,1,0.,24.0,0.,24.0
1979-07-11 14:15:08.260 ,4,0,0.,24.0,0.,24.0
1979-07-11 14:15:32.260 ,5,1,0.,24.0,0.,24.0
1979-07-11 14:15:56.260 ,5,0,0.,24.0,0.,24.0
1979-07-11 14:16:20.260 ,6,1,0.,24.0,0.,24.0
1979-07-11 14:16:44.260 ,6,0,0.,24.0,0.,24.0
1979-07-11 14:17:08.260 ,7,1,0.,24.0,0.,24.0
1979-07-11 14:17:32.260 ,7,0,0.,24.0,0.,24.0
1979-07-11 14:17:56.260 ,7,1,0.,24.0,0.,24.0
1979-07-11 14:18:20.260 ,7,0,0.,24.0,0.,24.0
1979-07-11 14:18:44.260 ,6,1,0.,24.0,0.,24.0
1979-07-11 14:19:08.260 ,6,0,0.,24.0,0.,24.0
1979-07-11 14:19:32.260 ,5,1,0.,24.0,0.,24.0
1979-07-11 14:19:56.260 ,5,0,0.,24.0,0.,24.0
1979-07-11 14:20:20.260 ,4,1,0.,24.0,0.,24.0
1979-07-11 14:20:44.260 ,4,0,0.,24.0,0.,24.0
1979-07-11 14:21:08.260 ,3,1,0.,24.0,0.,24.0
1979-07-11 14:21:32.260 ,3,0,0.,24.0,0.,24.0
1979-07-11 14:21:56.260 ,2,1,0.,24.0,0.,24.0
1979-07-11 14:22:20.260 ,2,0,0.,24.0,0.,24.0
1979-07-11 14:22:44.260 ,1,1,0.,24.0,0.,24.0
1979-07-11 14:23:08.260 ,1,0,0.,24.0,0.,24.0
1979-07-11 14:23:32.260 ,0,1,0.,24.0,0.,24.0
1979-07-11 14:23:56.260 ,0,0,0.,24.0,0.,24.0
1979-07-11 14:24:20.260 ,0,1,0.,24.0,0.,24.0
1979-07-11 14:24:44.260 ,0,0,0.,24.0,0.,24.0
1979-07-11 14:25:08.260 ,1,1,0.,24.0,0.,24.0
1979-07-11 14:25:32.260 ,1,0,0.,24.0,0.,24.0
1979-07-11 14:25:56.260 ,2,1,0.,24.0,0.,24.0
1979-07-11 14:26:20.260 ,2,0,0.,24.0,0.,24.0
1979-07-11 14:26:44.260 ,3,1,0.,24.0,0.,24.0
1979-07-11 14:27:08.260 ,3,0,0.,24.0,0.,24.0
1979-07-11 14:27:32.260 ,4,1,0.,24.0,0.,24.0
1979-07-11 14:27:56.260 ,4,0,0.,24.0,0.,24.0
1979-07-11 14:28:20.260 ,5,1,0.,24.0,0.,24.0
1979-07-11 14:28:44.260 ,5,0,0.,24.0,0.,24.0
1979-07-11 14:29:08.260 ,6,1,0.,24.0,0.,24.0
1979-07-11 14:29:32.260 ,6,0,0.,24.0,0.,24.0
1979-07-11 14:29:56.250 ,7,1,0.,24.0,0.,24.0
1979-07-11 14:30:20.250 ,7,0,0.,24.0,0.,24.0
1979-07-11 14:30:44.250 ,7,1,0.,24.0,0.,24.0
1979-07-11 14:31:08.250 ,7,0,0.,24.0,0.,24.0
1979-07-11 14:31:32.250 ,6,1,0.,24.0,0.,24.0
1979-07-11 14:31:56.250 ,6,0,0.,24.0,0.,24.0
1979-07-11 14:32:20.250 ,5,1,0.,24.0,0.,24.0
1979-07-11 14:32:44.250 ,5,0,0.,24.0,0.,24.0
1979-07-11 14:33:08.250 ,4,1,0.,24.0,0.,24.0
1979-07-11 14:33:32.250 ,4,0,0.,24.0,0.,24.0
1979-07-11 14:33:56.250 ,3,1,0.,24.0,0.,24.0
1979-07-11 14:34:20.250 ,3,0,0.,24.0,0.,24.0
1979-07-11 14:34:44.250 ,2,1,0.,24.0,0.,24.0
1979-07-11 14:35:08.250 ,2,0,0.,24.0,0.,24.0
1979-07-11 14:35:32.250 ,1,1,0.,24.0,0.,24.0
1979-07-11 14:35:56.250 ,1,0,0.,24.0,0.,24.0
1979-07-11 14:36:20.250 ,0,1,0.,24.0,0.,24.0
1979-07-11 14:36:44.250 ,0,0,0.,24.0,0.,24.0
1979-07-11 14:37:08.250 ,0,1,0.,24.0,0.,24.0
1979-07-11 14:37:32.250 ,0,0,0.,24.0,0.,24.0
1979-07-11 14:37:56.250 ,1,1,0.,24.0,0.,24.0
1979-07-11 14:38:20.250 ,1,0,0.,24.0,0.,24.0
1979-07-11 14:38:44.250 ,2,1,0.,24.0,0.,24.0
1979-07-11 14:39:08.250 ,2,0,0.,24.0,0.,24.0
1979-07-11 14:39:32.250 ,3,1,0.,24.0,0.,24.0
1979-07-11 14:39:56.250 ,3,0,0.,24.0,0.,24.0
1979-07-11 14:40:44.250 ,4,0,0.,24.0,0.,24.0
1979-07-11 14:41:08.250 ,5,1,0.,24.0,0.,24.0
1979-07-11 14:41:32.250 ,5,0,0.,24.0,0.,24.0
1979-07-11 14:41:56.250 ,6,1,0.,24.0,0.,24.0
1979-07-11 14:42:20.250 ,6,0,0.,24.0,0.,24.0
1979-07-11 14:42:44.250 ,7,0,0.,24.0,0.,24.0
1979-07-11 14:43:08.250 ,7,0,0.,24.0,0.,24.0
1979-07-11 14:43:32.250 ,3,1,0.,24.0,0.,24.0
1979-07-11 14:44:20.250 ,4,1,0.,24.0,0.,24.0
1979-07-11 14:44:44.250 ,7,1,0.,24.0,0.,24.0
1979-07-11 14:45:08.250 ,3,1,0.,24.0,0.,24.0
1979-07-11 14:45:32.250 ,0,1,0.,24.0,0.,24.0
1979-07-11 14:45:56.250 ,4,1,0.,24.0,0.,24.0
1979-07-11 14:46:20.250 ,7,1,0.,24.0,0.,24.0
1979-07-11 14:46:44.250 ,3,1,0.,24.0,0.,24.0
1979-07-11 14:47:08.250 ,0,1,0.,24.0,0.,24.0
1979-07-11 14:47:32.250 ,4,1,0.,24.0,0.,24.0
1979-07-11 14:47:56.250 ,7,1,0.,24.0,0.,24.0
1979-07-11 14:48:20.250 ,3,1,0.,24.0,0.,24.0
1979-07-11 14:48:44.250 ,0,1,0.,24.0,0.,24.0
1979-07-11 14:49:08.250 ,4,1,0.,24.0,0.,24.0
1979-07-11 14:49:32.250 ,7,1,0.,24.0,0.,24.0
1979-07-11 14:49:56.250 ,3,1,0.,24.0,0.,24.0
1979-07-11 14:50:20.250 ,0,1,0.,24.0,0.,24.0
1979-07-11 14:51:08.250 ,7,1,0.,24.0,0.,24.0
1979-07-11 14:51:32.250 ,3,1,0.,24.0,0.,24.0
1979-07-11 14:51:56.250 ,0,1,0.,24.0,0.,24.0
1979-07-11 14:52:20.250 ,4,1,0.,24.0,0.,24.0
1979-07-11 14:52:44.250 ,7,1,0.,24.0,0.,24.0
1979-07-11 14:53:08.250 ,3,1,0.,24.0,0.,24.0
1979-07-11 14:53:32.250 ,0,1,0.,24.0,0.,24.0
1979-07-11 14:53:56.250 ,0,0,0.,24.0,0.,24.0
1979-07-11 14:54:20.250 ,0,0,0.,24.0,0.,24.0
1979-07-11 14:54:44.250 ,5,1,0.,24.0,0.,24.0
1979-07-11 14:55:08.250 ,5,0,0.,24.0,0.,24.0
1979-07-11 14:55:32.250 ,4,1,0.,24.0,0.,24.0
1979-07-11 14:55:56.250 ,4,0,0.,24.0,0.,24.0
1979-07-11 14:56:20.250 ,3,1,0.,24.0,0.,24.0
1979-07-11 14:56:44.250 ,3,0,0.,24.0,0.,24.0
1979-07-11 14:57:08.250 ,2,1,0.,24.0,0.,24.0
1979-07-11 14:57:32.250 ,2,0,0.,24.0,0.,24.0
1979-07-11 14:57:56.250 ,1,1,0.,24.0,0.,24.0
1979-07-11 14:58:20.250 ,1,0,0.,24.0,0.,24.0
1979-07-11 14:58:44.250 ,0,1,0.,24.0,0.,24.0
1979-07-11 14:59:08.250 ,0,0,0.,24.0,0.,24.0
1979-07-11 14:59:32.250 ,0,1,0.,24.0,0.,24.0
1979-07-11 14:59:56.250 ,0,0,0.,24.0,0.,24.0
1979-07-11 15:00:20.250 ,1,1,0.,24.0,0.,24.0
